TimeEDT,TemperatureF,Dew PointF,Humidity,Sea Level PressureIn,VisibilityMPH,Wind Direction,Wind SpeedMPH,Gust SpeedMPH,PrecipitationIn,Events,Conditions,WindDirDegrees,DateUTC
12:54 AM,61.0,59.0,93,29.93,-9999.0,Calm,Calm,-,N/A,,Unknown,0,2013-10-17 04:54:00
1:54 AM,61.0,59.0,93,29.93,-9999.0,Calm,Calm,-,N/A,,Unknown,0,2013-10-17 05:54:00
2:54 AM,61.0,57.9,90,29.92,-9999.0,SW,3.5,-,N/A,,Unknown,220,2013-10-17 06:54:00
3:54 AM,61.0,57.9,90,29.91,-9999.0,Calm,Calm,-,N/A,,Unknown,0,2013-10-17 07:54:00
4:54 AM,61.0,57.9,90,29.91,-9999.0,West,3.5,-,N/A,,Unknown,260,2013-10-17 08:54:00
5:54 AM,60.1,57.9,93,29.91,-9999.0,Calm,Calm,-,N/A,,Unknown,0,2013-10-17 09:54:00
6:54 AM,60.1,57.9,93,29.91,-9999.0,Calm,Calm,-,N/A,,Unknown,0,2013-10-17 10:54:00
7:54 AM,61.0,59.0,93,29.91,-9999.0,SW,4.6,-,N/A,,Unknown,230,2013-10-17 11:54:00
8:54 AM,63.0,60.1,90,29.92,-9999.0,Variable,3.5,-,N/A,,Unknown,0,2013-10-17 12:54:00
9:54 AM,64.0,61.0,90,29.92,-9999.0,WSW,5.8,-,N/A,,Unknown,250,2013-10-17 13:54:00
10:54 AM,64.0,60.1,87,29.91,-9999.0,Variable,4.6,-,N/A,,Unknown,0,2013-10-17 14:54:00
11:54 AM,66.0,61.0,84,29.90,-9999.0,SSW,3.5,-,N/A,,Unknown,210,2013-10-17 15:54:00
12:54 PM,66.0,61.0,84,29.88,-9999.0,SW,4.6,-,N/A,,Unknown,220,2013-10-17 16:54:00
1:54 PM,66.9,61.0,81,29.86,-9999.0,SSW,3.5,-,N/A,,Unknown,210,2013-10-17 17:54:00
2:54 PM,66.9,60.1,79,29.84,-9999.0,Calm,Calm,-,N/A,,Unknown,0,2013-10-17 18:54:00
3:54 PM,66.0,61.0,84,29.83,-9999.0,Variable,3.5,-,N/A,,Unknown,0,2013-10-17 19:54:00
4:54 PM,64.0,60.1,87,29.82,-9999.0,SSW,6.9,-,N/A,,Unknown,200,2013-10-17 20:54:00
5:54 PM,63.0,60.1,90,29.82,-9999.0,SSW,5.8,-,N/A,,Unknown,210,2013-10-17 21:54:00
6:54 PM,61.0,60.1,97,29.82,-9999.0,SSW,6.9,-,N/A,,Unknown,200,2013-10-17 22:54:00
7:54 PM,61.0,60.1,97,29.81,-9999.0,South,4.6,-,N/A,,Unknown,190,2013-10-17 23:54:00
8:54 PM,63.0,60.1,90,29.81,-9999.0,SSW,9.2,-,N/A,,Unknown,200,2013-10-18 00:54:00
9:54 PM,63.0,61.0,93,29.81,-9999.0,SSW,6.9,-,N/A,,Unknown,200,2013-10-18 01:54:00
10:54 PM,63.0,61.0,93,29.79,-9999.0,SSW,8.1,-,N/A,,Unknown,200,2013-10-18 02:54:00
11:54 PM,63.0,61.0,93,29.77,-9999.0,SSW,5.8,-,N/A,,Unknown,200,2013-10-18 03:54:00